Wind_Speed
38 37 34 31 27 27 28 29 30 31 32 33 34 35 34 34 34 38 39 38 37 36 34 30 29 31 32 33 32 32 32 33 31 28 28 28 28 25 25 24 22 20 20
42 38 35 33 32 32 32 32 33 34 36 37 37 36 35 36 37 40 41 39 36 35 33 31 32 34 35 35 34 34 33 34 32 29 29 29 29 29 27 26 25 25 24
43 40 37 34 35 35 36 36 37 38 40 40 38 38 37 38 40 42 42 38 35 34 33 34 35 37 37 36 35 35 35 35 32 30 31 31 31 31 32 30 29 28 27
47 44 41 37 35 37 39 40 41 42 42 41 40 40 39 41 43 45 42 37 36 35 35 36 37 38 39 38 38 37 37 35 33 33 33 34 35 35 34 34 33 32 31
53 47 44 42 40 40 41 42 42 42 43 42 41 41 42 44 47 46 41 37 36 35 36 38 39 40 40 40 40 39 39 36 36 37 37 37 37 37 38 37 36 34 35
54 51 49 46 45 43 42 42 42 42 42 42 42 43 46 48 49 45 41 38 37 37 39 40 42 43 44 43 42 42 41 40 40 41 41 41 41 41 41 40 39 40 40
56 53 51 52 46 45 47 47 47 46 45 46 47 49 51 51 48 44 42 41 41 42 42 45 45 46 47 46 45 45 45 44 44 44 45 46 45 44 44 43 44 44 45
57 54 52 51 53 53 53 52 51 51 51 52 52 52 50 49 46 44 43 44 46 47 48 49 49 49 49 49 49 49 49 49 48 48 48 48 49 49 49 49 48 48 48
58 55 51 50 50 51 51 52 52 51 50 50 50 49 48 48 47 47 47 48 50 51 51 52 52 52 52 53 53 52 52 53 52 52 52 52 53 53 54 55 54 54 53
56 55 53 51 50 51 51 50 49 49 50 49 49 49 48 48 48 48 48 49 51 52 53 54 54 54 55 56 55 55 55 56 56 56 56 57 57 58 58 59 59 59 60
51 50 49 49 50 51 50 49 48 49 49 49 49 48 49 49 49 49 50 51 53 54 55 55 56 56 58 58 58 58 59 60 60 60 61 62 61 62 62 62 63 65 66
45 43 44 45 47 49 50 49 49 49 47 48 49 49 48 49 50 51 52 53 54 55 56 56 58 59 59 59 60 61 62 62 63 64 64 65 64 64 65 66 67 69 70
43 42 45 47 48 48 48 47 47 47 47 46 47 47 48 50 51 52 54 55 55 56 57 58 59 60 60 61 63 64 65 66 66 66 66 66 66 66 67 69 71 72 74
40 42 44 46 47 46 47 47 46 46 46 47 48 50 51 52 53 54 55 55 55 55 57 59 60 61 63 65 67 67 68 68 69 68 69 68 68 70 72 73 75 77 79
34 38 40 42 43 44 45 46 46 46 47 49 50 51 52 52 52 52 53 54 55 57 59 61 63 65 67 67 68 69 69 69 70 70 71 72 73 74 76 79 81 83 85
37 41 43 43 44 44 43 45 48 49 50 50 49 49 50 51 52 53 54 56 58 60 63 66 68 69 69 69 69 69 69 70 70 70 72 74 76 78 81 83 86 88 89
39 38 40 46 48 49 49 48 48 47 47 47 48 49 51 53 54 56 57 59 62 65 68 69 69 68 68 69 69 69 70 71 72 73 75 76 79 81 83 84 86 88 92
40 41 41 41 43 45 45 45 45 46 47 49 51 53 55 56 58 60 62 65 68 70 70 68 67 67 67 68 68 69 71 73 74 76 77 79 80 83 86 88 91 93 97
41 42 43 43 44 44 44 45 47 49 51 52 54 55 57 60 62 65 68 70 70 67 66 64 64 64 65 67 69 70 72 73 74 77 80 83 86 89 92 95 98 100 101
37 39 42 44 46 46 48 49 51 52 53 54 56 59 61 64 68 70 70 67 64 62 61 61 62 65 67 68 69 71 73 75 78 79 83 87 91 93 95 97 98 98 96
43 44 45 47 48 49 50 52 53 54 57 60 60 63 67 71 70 66 62 59 58 58 59 61 63 65 68 70 72 74 77 80 82 85 87 89 89 88 87 83 78 74 73
45 46 48 48 48 48 50 53 56 58 60 64 68 70 69 65 60 57 56 56 58 59 60 63 64 67 70 72 75 77 80 83 86 84 81 78 73 67 63 64 66 69 72
48 49 50 50 51 53 55 57 61 65 67 68 67 64 60 55 54 57 58 59 61 64 65 67 70 72 74 75 77 80 82 80 75 70 65 59 57 58 61 63 67 69 71
54 55 57 57 58 62 63 62 64 64 63 61 58 53 49 49 54 59 61 62 64 67 68 71 72 73 74 77 78 75 70 65 60 57 54 54 55 57 59 60 61 62 62
55 56 58 60 60 62 63 61 61 58 54 52 49 46 47 50 55 60 61 63 66 69 69 71 71 73 76 75 68 61 55 53 52 51 51 50 51 53 54 53 51 48 46
56 58 59 60 60 60 58 56 51 47 44 41 42 45 48 51 54 57 61 65 67 69 71 71 73 76 72 61 54 51 52 52 51 48 46 46 47 48 47 44 40 39 37
Wind_Direction
228 229 232 232 229 229 232 233 235 240 247 252 259 266 275 282 290 299 305 308 312 316 313 309 309 309 308 308 308 310 311 311 305 302 305 304 300 303 304 302 298 295 298
227 229 231 232 232 231 232 236 239 243 249 255 262 268 275 282 291 298 303 306 309 311 306 304 305 306 306 306 306 307 307 306 301 299 299 301 300 295 296 296 291 290 292
220 226 231 233 234 235 237 239 242 246 251 257 264 270 276 283 290 297 301 302 305 303 299 300 302 303 305 305 304 304 306 302 299 297 296 296 296 294 294 294 290 288 290
228 226 228 233 236 237 238 241 244 248 254 259 265 270 277 283 290 295 297 298 299 295 294 297 299 301 302 302 301 302 302 298 295 295 294 293 294 292 290 293 292 290 290
237 236 233 233 237 240 242 243 247 251 255 260 265 270 277 283 289 292 293 293 292 290 292 294 297 300 300 300 300 300 299 295 292 292 292 291 290 290 290 289 289 287 289
235 233 236 238 237 243 246 249 251 254 257 262 267 272 277 282 286 287 287 286 286 287 291 294 295 296 297 297 297 296 295 293 291 291 290 290 290 290 289 289 287 286 286
236 237 236 238 241 246 248 250 253 256 260 264 268 272 276 279 281 283 284 283 283 285 290 292 293 294 295 295 294 293 292 290 289 290 290 291 291 290 288 287 286 286 287
232 235 238 240 240 244 249 253 255 257 260 264 268 271 273 276 278 280 282 281 281 284 288 290 291 292 293 293 292 291 291 291 291 291 292 292 292 291 290 289 288 286 285
234 235 235 237 240 244 247 249 253 257 260 262 265 268 271 274 278 279 280 280 281 284 286 287 289 291 292 293 292 292 292 292 292 292 291 291 290 290 290 289 288 287 286
233 235 236 237 239 243 247 251 254 257 259 262 265 269 272 275 276 277 279 280 281 283 284 286 288 290 291 292 293 293 293 292 291 291 290 290 290 290 289 289 288 287 286
232 233 234 237 240 243 245 248 251 255 258 262 266 268 270 272 275 276 278 279 281 282 284 286 288 290 291 292 292 292 291 291 290 290 289 289 288 287 287 286 286 286 285
227 227 230 232 236 240 245 249 252 256 257 259 264 268 269 271 274 276 278 279 281 283 285 287 288 290 291 292 291 291 290 290 289 287 287 286 286 285 285 285 284 284 284
230 232 233 235 239 243 246 250 253 257 260 263 264 267 270 272 275 277 279 281 283 285 286 288 289 291 291 291 290 290 289 289 288 287 286 285 285 284 283 283 283 282 282
235 238 238 239 240 243 247 250 253 256 259 262 265 268 271 273 274 276 278 280 283 285 287 288 289 290 290 290 289 289 289 288 288 287 286 285 284 284 283 283 283 283 283
232 232 234 236 237 241 246 250 254 257 259 262 264 266 269 271 274 276 279 281 284 286 287 289 290 291 290 290 289 288 287 286 286 286 285 285 285 285 285 284 284 284 284
216 226 231 235 240 244 249 252 254 257 260 263 266 268 270 272 275 278 281 283 286 288 289 291 291 291 290 289 288 287 286 286 285 285 286 287 286 286 286 286 286 286 286
234 240 239 241 244 248 251 255 257 260 262 264 267 269 271 275 278 281 283 286 288 289 291 291 290 289 288 288 287 287 286 286 287 288 288 288 288 288 288 288 288 288 288
240 243 247 249 250 252 254 256 258 261 264 267 269 272 275 279 281 284 286 288 290 292 291 290 289 289 288 288 288 289 290 290 291 290 290 290 289 289 289 289 288 288 288
245 245 246 248 250 253 255 258 261 264 266 268 271 274 278 281 284 286 289 291 291 290 289 289 288 287 288 289 289 289 290 291 291 290 292 292 292 293 292 291 290 289 287
242 245 248 250 253 256 259 262 264 266 269 271 274 277 279 282 286 289 290 289 288 287 286 287 287 287 288 291 292 293 292 293 295 296 295 295 294 293 292 290 288 285 284
249 249 251 253 257 260 262 264 265 267 270 272 276 280 285 286 289 288 286 285 285 287 287 289 293 294 294 295 296 298 298 298 298 297 297 296 293 291 289 290 291 291 290
249 250 252 255 258 260 263 265 267 270 274 277 281 284 286 286 285 283 284 286 289 291 292 293 295 299 301 301 300 300 300 300 300 299 296 293 293 294 294 294 295 294 293
251 255 258 259 260 262 265 266 269 273 279 281 284 284 284 283 279 279 283 286 291 292 294 296 299 301 302 302 302 303 303 302 299 298 298 297 296 298 299 299 299 297 294
250 251 253 256 259 261 267 275 277 280 282 282 282 280 278 280 278 280 284 288 290 293 297 299 300 302 304 304 304 303 302 300 300 300 301 301 302 303 305 305 303 300 297
258 260 262 268 273 274 276 278 281 280 278 276 276 277 279 280 279 284 289 292 294 297 299 300 302 304 304 304 302 300 299 298 298 299 300 301 304 309 312 315 315 311 305
268 268 268 270 274 276 278 278 273 265 269 276 276 277 279 282 286 291 295 296 297 299 301 302 304 304 303 301 300 300 300 299 298 300 300 305 309 314 318 322 327 329 324
Height
5789 5792 5797 5801 5803 5806 5808 5811 5813 5816 5817 5819 5820 5821 5820 5819 5818 5817 5816 5813 5811 5809 5807 5805 5803 5800 5798 5796 5793 5791 5788 5785 5782 5780 5778 5777 5775 5773 5771 5769 5767 5765 5764
5782 5787 5791 5794 5797 5799 5802 5805 5807 5809 5810 5812 5813 5813 5813 5812 5811 5810 5809 5807 5805 5803 5801 5799 5797 5795 5792 5790 5788 5785 5783 5780 5777 5775 5773 5771 5770 5768 5766 5764 5762 5760 5758
5773 5779 5783 5787 5790 5793 5795 5798 5800 5802 5803 5805 5806 5805 5805 5805 5804 5803 5802 5800 5798 5797 5795 5793 5790 5788 5786 5783 5781 5779 5777 5774 5771 5769 5767 5765 5763 5761 5760 5758 5756 5754 5752
5767 5771 5776 5780 5783 5785 5788 5790 5792 5794 5796 5797 5797 5798 5797 5797 5796 5796 5794 5792 5791 5789 5788 5785 5783 5781 5779 5777 5774 5772 5769 5767 5765 5763 5760 5758 5756 5754 5752 5751 5748 5747 5745
5758 5764 5768 5772 5774 5777 5779 5782 5784 5786 5787 5789 5789 5790 5789 5789 5788 5787 5786 5784 5783 5781 5780 5778 5775 5773 5771 5769 5767 5764 5762 5760 5758 5755 5753 5751 5748 5746 5745 5742 5741 5739 5736
5747 5754 5760 5763 5766 5769 5772 5774 5775 5777 5779 5780 5781 5781 5781 5781 5780 5778 5777 5776 5774 5773 5771 5769 5768 5765 5763 5761 5758 5756 5754 5751 5749 5747 5744 5741 5740 5737 5736 5734 5732 5729 5728
5738 5744 5750 5754 5757 5760 5763 5764 5766 5768 5770 5771 5772 5772 5772 5771 5770 5769 5768 5767 5765 5764 5763 5761 5758 5756 5754 5752 5749 5747 5744 5742 5739 5736 5734 5731 5729 5727 5725 5724 5722 5720 5717
5728 5734 5740 5744 5747 5750 5753 5755 5757 5759 5760 5761 5762 5762 5761 5760 5760 5759 5758 5757 5756 5754 5752 5750 5748 5746 5744 5741 5739 5737 5734 5731 5729 5726 5723 5720 5718 5715 5713 5711 5710 5708 5707
5718 5724 5729 5733 5736 5740 5743 5745 5747 5748 5749 5750 5750 5751 5750 5750 5749 5748 5747 5746 5745 5743 5741 5739 5737 5735 5733 5730 5728 5725 5723 5719 5717 5714 5711 5708 5705 5702 5700 5697 5695 5693 5692
5707 5712 5717 5721 5725 5728 5731 5733 5735 5737 5738 5739 5739 5739 5739 5738 5738 5737 5736 5735 5734 5732 5730 5727 5725 5723 5720 5718 5715 5713 5710 5707 5704 5701 5698 5694 5691 5688 5685 5682 5679 5677 5674
5694 5700 5705 5709 5713 5716 5719 5722 5724 5726 5726 5727 5727 5727 5727 5727 5726 5725 5725 5723 5722 5719 5717 5715 5713 5710 5708 5705 5703 5700 5697 5694 5691 5687 5684 5680 5676 5672 5669 5666 5662 5659 5656
5685 5689 5693 5698 5701 5704 5707 5710 5712 5713 5714 5715 5716 5716 5716 5715 5714 5713 5712 5711 5709 5706 5704 5702 5700 5697 5694 5692 5689 5686 5683 5679 5676 5672 5668 5664 5661 5657 5653 5650 5646 5642 5638
5675 5680 5684 5687 5691 5694 5696 5698 5700 5701 5703 5703 5704 5704 5704 5703 5702 5701 5699 5697 5695 5693 5690 5688 5685 5683 5679 5676 5673 5670 5666 5663 5659 5655 5651 5647 5643 5639 5636 5632 5628 5624 5620
5666 5670 5674 5678 5680 5683 5685 5687 5689 5690 5691 5691 5692 5692 5691 5690 5689 5688 5686 5684 5682 5680 5677 5674 5671 5668 5664 5661 5657 5653 5649 5645 5641 5636 5632 5629 5625 5621 5617 5613 5608 5604 5599
5657 5661 5664 5667 5669 5672 5674 5676 5677 5678 5679 5680 5680 5680 5679 5678 5676 5675 5673 5671 5669 5666 5663 5660 5656 5652 5648 5644 5639 5635 5631 5627 5622 5618 5614 5609 5605 5600 5596 5591 5587 5581 5576
5647 5650 5653 5656 5658 5660 5662 5664 5666 5667 5667 5667 5667 5667 5666 5665 5663 5662 5659 5657 5654 5651 5647 5643 5638 5634 5630 5626 5621 5617 5613 5608 5604 5600 5594 5589 5584 5579 5573 5567 5560 5554 5549
5636 5638 5641 5645 5647 5649 5650 5652 5653 5654 5655 5655 5655 5654 5653 5651 5649 5647 5645 5642 5638 5634 5630 5625 5620 5615 5610 5606 5602 5598 5594 5590 5585 5580 5574 5570 5563 5556 5550 5543 5537 5530 5521
5626 5628 5631 5633 5635 5636 5639 5641 5642 5643 5643 5642 5641 5640 5638 5636 5634 5632 5629 5626 5621 5617 5612 5607 5602 5597 5592 5588 5584 5579 5575 5570 5565 5559 5552 5546 5540 5533 5525 5519 5513 5505 5494
5618 5620 5622 5624 5625 5627 5629 5629 5630 5630 5629 5628 5627 5626 5624 5622 5620 5617 5613 5609 5604 5599 5594 5589 5585 5580 5575 5571 5567 5562 5558 5552 5546 5539 5530 5522 5515 5507 5498 5490 5483 5476 5465
5608 5610 5612 5613 5614 5616 5617 5617 5617 5617 5616 5615 5614 5612 5609 5607 5603 5600 5595 5591 5586 5581 5577 5572 5567 5562 5559 5553 5548 5542 5537 5532 5525 5516 5506 5496 5488 5480 5470 5458 5449 5442 5433
5597 5598 5600 5600 5602 5604 5604 5604 5604 5603 5602 5599 5598 5595 5593 5589 5585 5581 5577 5573 5569 5565 5561 5557 5551 5545 5540 5534 5527 5520 5513 5506 5500 5491 5482 5470 5459 5450 5439 5426 5417 5410 5403
5584 5585 5585 5587 5588 5589 5590 5589 5588 5587 5585 5583 5581 5578 5575 5572 5568 5564 5561 5558 5554 5549 5544 5539 5533 5526 5520 5512 5505 5498 5490 5483 5475 5465 5454 5444 5433 5424 5416 5408 5399 5390 5382
5569 5571 5572 5573 5574 5574 5574 5573 5571 5570 5568 5566 5563 5560 5557 5555 5552 5549 5546 5542 5538 5533 5527 5521 5515 5508 5500 5492 5484 5476 5467 5457 5447 5438 5430 5423 5415 5408 5401 5392 5382 5372 5362
5555 5556 5557 5558 5558 5557 5557 5557 5555 5553 5550 5548 5545 5543 5541 5539 5537 5533 5530 5526 5521 5515 5509 5503 5497 5490 5482 5472 5462 5452 5442 5433 5425 5419 5414 5407 5400 5392 5384 5375 5365 5353 5343
5538 5539 5540 5541 5542 5542 5541 5540 5538 5536 5533 5531 5530 5529 5527 5524 5521 5518 5513 5509 5503 5497 5491 5484 5478 5471 5462 5451 5441 5432 5425 5418 5412 5408 5401 5395 5388 5380 5370 5359 5348 5338 5329
5524 5524 5525 5525 5525 5524 5524 5523 5521 5520 5519 5517 5516 5515 5512 5510 5506 5503 5497 5491 5486 5479 5472 5466 5458 5450 5441 5432 5424 5417 5411 5404 5399 5394 5388 5382 5375 5367 5359 5350 5341 5331 5323